Tracking 17145 objects as of 23-May-2015
HD Live streaming from Space Station

YAMAL 202

Track YAMAL 202 now!
YAMAL 202 is classified as:


NORAD ID: 28089
Int'l Code: 2003-053A
Perigee: 35,778.8 km
Apogee: 35,806.9 km
Inclination: 0.0 °
Period: 1,436.1 minutes
Semi major axis: 42163 km
RCS: 0.003 m2 (small)
Launch date: November 24, 2003
Source: Commonwealth of Independent States (former USSR) (CIS)

18 C-band; provide communications for gas corporation operations throughout Eurasian continent.
Your satellite tracking list
Your tracking list is empty





NASA's NSSDC Master Catalog

Two Line Element Set (TLE):
1 28089U 03053A   15143.18182922  .00000104  00000-0  00000+0 0  9999
2 28089 000.0106 285.6858 0003335 186.5482 242.7246 01.00274848 42148

Source of the keplerian elements: AFSPC

N2YO: 385